Regional Weather Roundup
Issued by NWS

Home | Current Version | Previous Version | Text Only | Print | Product List | Glossary Off
Versions: 1 2 3 4 5 6 7 8 9 10 11 12 13 14 15 16 17 18 19 20 21 22 23 24 25 26 27 28 29 30 31 32 33 34 35 36 37 38 39 40 41 42 43 44 45 46 47 48 49 50

000
ASUS45 KABQ 271801
RWRNM
NEW MEXICO REGIONAL WEATHER ROUNDUP
NATIONAL WEATHER SERVICE ALBUQUERQUE NM
1200 PM MDT TUE SEP 27 2016

NOTE: "FAIR" MEANS FEW OR NO CLOUDS BELOW 12,000 FEET AGL WITH NO
       SIGNIFICANT WEATHER OR OBSTRUCTIONS TO VISION.

      THIS PRODUCT IS RELEASED AS TWO VERSIONS.  ONE VERSION NEAR
      THE TOP OF THE HOUR CONTAINING PRELIMINARY DATA FROM ALBUQUERQUE
      AND OTHER STATIONS.  A FINAL VERSION WITH ADDITIONAL DATA IS
      ISSUED ABOUT 10 MINUTES AFTER THE HOUR.

NMZ501-503-504-510>518-271900-
NORTHWEST PLATEAU/NORTHCENTRAL MOUNTAINS

CITY           SKY/WX    TMP DP  RH WIND       PRES   REMARKS
FARMINGTON     FAIR      67  33  28 SE8       30.30F
6HR MIN TEMP:  45; 6HR MAX TEMP:  67;

LOS ALAMOS     FAIR      63  30  29 CALM      30.39F
SANTA FE       FAIR      66  32  28 CALM      30.34F
6HR MIN TEMP:  43; 6HR MAX TEMP:  67;

TAOS           FAIR      66  30  26 N10       30.37F

$$
NMZ402-403-502-505>509-271900-
WESTCENTRAL MOUNTAINS/SOUTHWEST MOUNTAINS

CITY           SKY/WX    TMP DP  RH WIND       PRES   REMARKS
GALLUP         FAIR      67  34  29 CALM      30.32F
6HR MIN TEMP:  47; 6HR MAX TEMP:  69; 6HR PCP: TRACE;

SILVER CITY    CLOUDY    65  45  48 SE13G26   30.31S

$$
NMZ407-409-411-412-271900-
SOUTHERN DESERTS

CITY           SKY/WX    TMP DP  RH WIND       PRES   REMARKS
DEMING         CLOUDY    64  44  48 SE10      30.28F
6HR MIN TEMP:  53; 6HR MAX TEMP:  64;

LAS CRUCES     CLOUDY    62  47  59 S5        30.29F
HOLLOMAN AFB   FAIR      65  49  55 SW3       30.25F
ALAMOGORDO     FAIR      64  46  52 CALM      30.27F
T OR C         CLOUDY    66  47  50 CALM      30.28F
6HR MIN TEMP:  54; 6HR MAX TEMP:  67;


$$
NMZ519>523-271900-
CENTRAL VALLEYS/CENTRAL HIGHLANDS

CITY           SKY/WX    TMP DP  RH WIND       PRES   REMARKS
ALBUQUERQUE    FAIR      66  35  31 CALM      30.31F
6HR MIN TEMP:  51; 6HR MAX TEMP:  67;

DOUBLE EAGLE   MOSUNNY   66  34  30 VRB7      30.34F
CLINES CORNERS FAIR      65  32  29 VRB5      30.37F
6HR MIN TEMP:  46; 6HR MAX TEMP:  66;

BELEN          FAIR      66  35  30 E5        30.31F
6HR MIN TEMP:  51; 6HR MAX TEMP:  67;

SOCORRO        CLOUDY    68  40  36 SE5       30.28F
6HR MIN TEMP:  48; 6HR MAX TEMP:  69;


$$
NMZ524>526-539-540-271900-
SOUTHCENTRAL MOUNTAINS

CITY           SKY/WX    TMP DP  RH WIND       PRES   REMARKS
RUIDOSO        FAIR      63  32  31 SE3       30.38F

$$
NMZ527>531-271900-
NORTHEAST HIGHLANDS/NORTHEAST PLAINS

CITY           SKY/WX    TMP DP  RH WIND       PRES   REMARKS
LAS VEGAS      FAIR      70  28  21 S8        30.35F
6HR MIN TEMP:  36; 6HR MAX TEMP:  70;

RATON          FAIR      72  33  24 S9        30.29F
6HR MIN TEMP:  35; 6HR MAX TEMP:  72;

CLAYTON        FAIR      77  36  22 MISG      30.23F
6HR MIN TEMP:  47; 6HR MAX TEMP:  78;


$$
NMZ532>537-271900-
EASTCENTRAL PLAINS

CITY           SKY/WX    TMP DP  RH WIND       PRES   REMARKS
TUCUMCARI      FAIR      75  31  19 CALM      30.21F
6HR MIN TEMP:  41; 6HR MAX TEMP:  76;

CANNON AFB     NOT AVBL
CLOVIS AIRPORT FAIR      70  39  32 W5        30.25F

$$
NMZ028-029-538-271900-
SOUTHEAST PLAINS

CITY           SKY/WX    TMP DP  RH WIND       PRES   REMARKS
ROSWELL        FAIR      71  41  33 CALM      30.24F
6HR MIN TEMP:  54; 6HR MAX TEMP:  72;

ARTESIA        FAIR      68  43  40 N6        30.25F
CARLSBAD       FAIR      68  43  40 VRB5      30.23F
6HR MIN TEMP:  49; 6HR MAX TEMP:  69;

HOBBS          SUNNY     68  37  32 W5        30.25F


$$



USA.gov is the U.S. government's official web portal to all federal, state and local government web resources and services.